Spokane Felts, WA
on Sunday, February 24, 2013

Sunday
Previous Day Next Day
Daily Summary
 ActualAverageRecord
Temperature
Mean Temperature °F 36°F  
Max Temperature 41°F 45°F 53°F (2005)
Min Temperature 26°F 27°F 4°F (2011)
Degree Days
Heating Degree Days 31 29  
Month to date heating degree days 701 745  
Since 1 July heating degree days 4002 4457  
Cooling Degree Days 0 0  
Month to date cooling degree days 0 0  
Year to date cooling degree days 0 0  
Moisture
Dew Point 24°F   
Average Humidity 70    
Maximum Humidity 85    
Minimum Humidity 54    
Precipitation
Precipitation 0.00 in 0.04 in 0.22 in (2014)
Month to date precipitation 0.37 1.21  
Year to date precipitation 2.00 3.16  
Wind
Wind Speed 5 mph   
Max Wind Speed 15 mph   
Max Gust Speed 18 mph   
Visibility 10 miles   
Events     

Key: T is trace of precipitation, MM is missing value
Source: NWS Daily Summary
Time(PST)TemperatureDew PointHumidity Pressure Visibility Wind DirectionWind SpeedGust SpeedPrecipitationEvents Conditions
12:53 AM 28.9°F 24.1°F 82% 30.27 in 10.0 miles North 3.5 mph - N/A   Clear
1:53 AM 30.9°F 23.0°F 72% 30.28 in 10.0 miles WSW 6.9 mph - N/A   Clear
2:53 AM 27.0°F 21.0°F 78% 30.29 in 10.0 miles Calm Calm - N/A   Clear
3:53 AM 30.0°F 23.0°F 75% 30.30 in 10.0 miles South 6.9 mph - N/A   Clear
4:53 AM 28.9°F 21.9°F 75% 30.31 in 10.0 miles Variable 3.5 mph - N/A   Scattered Clouds
5:09 AM 28.4°F 21.2°F 74% 30.26 in 10.0 miles SSW 3.5 mph - N/A   Mostly Cloudy
5:46 AM 28.4°F 21.2°F 74% 30.27 in 10.0 miles Variable 3.5 mph - N/A   Scattered Clouds
5:53 AM 30.0°F 21.9°F 72% 30.32 in 10.0 miles WSW 3.5 mph - N/A   Partly Cloudy
6:48 AM 28.4°F 21.2°F 74% 30.28 in 10.0 miles Calm Calm - N/A   Mostly Cloudy
6:53 AM 28.0°F 21.9°F 78% 30.33 in 10.0 miles Calm Calm - N/A   Mostly Cloudy
7:53 AM 30.9°F 25.0°F 79% 30.35 in 10.0 miles Variable 3.5 mph - N/A   Overcast
8:53 AM 32.0°F 24.1°F 73% 30.36 in 10.0 miles SSW 6.9 mph - N/A   Overcast
9:53 AM 34.0°F 25.0°F 70% 30.35 in 10.0 miles SSW 8.1 mph - N/A   Overcast
10:53 AM 36.0°F 26.1°F 67% 30.35 in 10.0 miles SSW 10.4 mph - N/A   Mostly Cloudy
11:53 AM 37.9°F 27.0°F 65% 30.35 in 10.0 miles South 9.2 mph - N/A   Overcast
12:53 PM 39.9°F 25.0°F 55% 30.32 in 10.0 miles SW 10.4 mph 17.3 mph N/A   Overcast
1:53 PM 39.9°F 25.0°F 55% 30.30 in 10.0 miles SW 9.2 mph - N/A   Overcast
2:53 PM 39.9°F 26.1°F 58% 30.29 in 10.0 miles South 11.5 mph - N/A   Overcast
3:53 PM 39.9°F 26.1°F 58% 30.28 in 10.0 miles SW 9.2 mph - N/A   Overcast
4:53 PM 39.0°F 26.1°F 60% 30.27 in 10.0 miles South 4.6 mph - N/A   Mostly Cloudy
5:53 PM 37.9°F 27.0°F 65% 30.24 in 10.0 miles SE 6.9 mph - N/A   Mostly Cloudy
6:53 PM 37.0°F 25.0°F 62% 30.23 in 10.0 miles SE 4.6 mph - N/A   Mostly Cloudy
7:53 PM 37.0°F 25.0°F 62% 30.21 in 10.0 miles SE 4.6 mph - N/A   Overcast
8:53 PM 37.0°F 25.0°F 62% 30.18 in 10.0 miles Calm Calm - N/A   Overcast
9:53 PM 37.0°F 27.0°F 67% 30.15 in 10.0 miles Calm Calm - N/A   Overcast
10:53 PM 36.0°F 26.1°F 67% 30.12 in 10.0 miles East 5.8 mph - N/A   Overcast
11:53 PM 37.0°F 25.0°F 62% 30.09 in 10.0 miles Calm Calm - N/A   Overcast
Moon Phase
Feb. 24 Feb. 25 Mar. 04 Mar. 11 Mar. 19
Sunrise:06:38 AM (PST) Moon Rise:04:43 PM (PST)2/24
Sunset:05:27 PM (PST) Moon Set:05:39 AM (PST)2/24

Copyright © 2014 The Weather Underground, Inc.